TimeAKST,TemperatureF,Dew PointF,Humidity,Sea Level PressureIn,VisibilityMPH,Wind Direction,Wind SpeedMPH,Gust SpeedMPH,PrecipitationIn,Events,Conditions,WindDirDegrees,DateUTC
12:53 AM,39.0,37.9,96,29.97,1.0,Calm,Calm,-,0.00,Rain,Light Rain,0,2012-11-09 09:53:00
1:53 AM,39.9,39.0,97,29.94,1.0,Calm,Calm,-,0.00,Rain,Light Rain,0,2012-11-09 10:53:00
2:36 AM,41.0,41.0,100,29.91,0.8,East,3.5,-,0.00,Rain,Light Rain,100,2012-11-09 11:36:00
3:53 AM,41.0,41.0,100,29.89,0.8,East,11.5,-,0.01,Rain,Light Rain,100,2012-11-09 12:53:00
4:53 AM,42.1,41.0,96,29.86,0.8,ESE,11.5,-,0.01,Rain,Light Rain,110,2012-11-09 13:53:00
5:10 AM,42.8,41.0,93,29.84,3.0,ESE,10.4,-,0.00,Rain,Light Rain,120,2012-11-09 14:10:00
5:53 AM,42.1,42.1,100,29.83,7.0,ESE,12.7,-,0.01,Rain,Light Rain,110,2012-11-09 14:53:00
6:35 AM,42.8,42.8,100,29.81,7.0,ESE,10.4,-,0.00,Rain,Light Rain,110,2012-11-09 15:35:00
6:53 AM,42.1,42.1,100,29.80,5.0,East,16.1,-,0.00,Rain,Light Rain,100,2012-11-09 15:53:00
7:53 AM,42.1,42.1,100,29.76,4.0,East,18.4,-,0.01,Rain,Light Rain,90,2012-11-09 16:53:00
8:42 AM,42.8,42.8,100,29.74,3.0,East,16.1,-,0.01,Rain,Light Rain,100,2012-11-09 17:42:00
8:53 AM,43.0,42.1,97,29.74,3.0,ESE,13.8,-,0.01,Rain,Light Rain,110,2012-11-09 17:53:00
9:53 AM,43.0,42.1,97,29.73,4.0,East,13.8,-,0.00,Rain,Light Rain,100,2012-11-09 18:53:00
10:53 AM,43.0,42.1,97,29.72,3.0,East,13.8,-,0.00,Rain,Light Rain,90,2012-11-09 19:53:00
11:14 AM,42.8,42.8,100,29.70,3.0,East,10.4,-,0.00,Rain,Light Rain,90,2012-11-09 20:14:00
11:53 AM,43.0,42.1,97,29.69,3.0,East,9.2,-,0.00,Rain,Light Rain,80,2012-11-09 20:53:00
12:01 PM,42.8,42.8,100,29.68,3.0,East,10.4,-,0.00,Rain,Light Rain,80,2012-11-09 21:01:00
12:30 PM,42.8,42.8,100,29.67,2.0,East,9.2,-,0.00,Rain,Light Rain,80,2012-11-09 21:30:00
12:33 PM,42.8,42.8,100,29.67,1.0,East,9.2,-,0.00,Rain,Light Rain,80,2012-11-09 21:33:00
12:53 PM,43.0,42.1,97,29.67,1.0,East,8.1,-,0.01,Rain,Light Rain,80,2012-11-09 21:53:00
12:59 PM,42.8,42.8,100,29.66,0.5,ENE,8.1,-,0.01,Rain,Light Rain,70,2012-11-09 21:59:00
1:53 PM,42.1,42.1,100,29.64,0.5,East,6.9,-,0.06,Rain,Light Rain,80,2012-11-09 22:53:00
2:34 PM,42.8,42.8,100,29.61,2.0,ENE,11.5,-,0.05,Rain,Light Rain,70,2012-11-09 23:34:00
2:53 PM,43.0,42.1,97,29.61,2.0,ENE,11.5,-,0.06,Rain,Light Rain,70,2012-11-09 23:53:00
3:53 PM,43.0,42.1,97,29.58,3.0,ENE,9.2,-,0.02,Rain,Light Rain,60,2012-11-10 00:53:00
4:51 PM,42.8,42.8,100,29.56,2.0,NE,9.2,-,0.03,Rain,Light Rain,40,2012-11-10 01:51:00
4:53 PM,42.1,42.1,100,29.57,2.0,NE,9.2,-,0.03,Rain,Light Rain,40,2012-11-10 01:53:00
5:04 PM,42.8,42.8,100,29.56,0.5,NE,8.1,-,0.01,Rain,Light Rain,40,2012-11-10 02:04:00
5:53 PM,43.0,42.1,97,29.55,0.2,NE,9.2,-,0.03,Rain,Light Rain,40,2012-11-10 02:53:00
6:53 PM,42.1,42.1,100,29.53,0.2,NNE,8.1,-,0.10,Rain,Light Rain,30,2012-11-10 03:53:00
7:53 PM,42.1,42.1,100,29.52,0.8,NNE,8.1,-,0.10,Rain,Light Rain,30,2012-11-10 04:53:00
8:53 PM,43.0,42.1,97,29.50,0.8,NNE,8.1,-,0.06,Rain,Light Rain,30,2012-11-10 05:53:00
9:53 PM,43.0,42.1,97,29.49,3.0,NNE,10.4,-,0.03,Rain,Light Rain,30,2012-11-10 06:53:00
10:53 PM,43.0,42.1,97,29.48,3.0,NNW,3.5,-,0.03,Rain,Light Rain,340,2012-11-10 07:53:00
11:42 PM,42.8,42.8,100,29.47,1.5,North,6.9,-,0.01,Rain,Light Rain,360,2012-11-10 08:42:00
11:53 PM,43.0,42.1,97,29.47,1.5,North,5.8,-,0.02,Rain,Light Rain,360,2012-11-10 08:53:00